H1 CPF 2 NER 2023 9 11 9 254 01 glonass133 H2 1403201 9133 40001 2023 9 11 0 0 0 2023 9 14 23 45 0 900 1 1 0 0 0 1 H9 10 0 60198 0.00000 0 -23574708.221 -3330088.525 -9103805.272 10 0 60198 900.00000 0 -22260761.977 -3232347.289 -11991873.827 10 0 60198 1800.00000 0 -20605487.507 -3280663.090 -14646531.149 10 0 60198 2700.00000 0 -18656011.187 -3516086.458 -17016171.841 10 0 60198 3600.00000 0 -16468686.360 -3970029.933 -19054771.404 10 0 60198 4500.00000 0 -14106858.910 -4662728.251 -20722779.140 10 0 60198 5400.00000 0 -11638357.669 -5602181.029 -21987881.517 10 0 60198 6300.00000 0 -9132815.033 -6783622.615 -22825621.798 10 0 60198 7200.00000 0 -6658929.877 -8189541.413 -23219864.765 10 0 60198 8100.00000 0 -4281786.622 -9790247.770 -23163098.590 10 0 60198 9000.00000 0 -2060341.421 -11544966.483 -22656569.029 10 0 60198 9900.00000 0 -45179.025 -13403408.192 -21710244.334 10 0 60198 10800.00000 0 1723367.821 -15307753.952 -20342612.357 10 0 60198 11700.00000 0 3216659.982 -17194970.317 -18580314.375 10 0 60198 12600.00000 0 4418696.421 -18999358.545 -16457623.082 10 0 60198 13500.00000 0 5326524.228 -20655231.915 -14015774.964 10 0 60198 14400.00000 0 5950099.072 -22099609.897 -11302169.923 10 0 60198 15300.00000 0 6311603.682 -23274817.147 -8369453.441 10 0 60198 16200.00000 0 6444254.494 -24130879.211 -5274498.771 10 0 60198 17100.00000 0 6390647.827 -24627615.331 -2077308.503 10 0 60198 18000.00000 0 6200715.962 -24736341.070 1160143.519 10 0 60198 18900.00000 0 5929379.806 -24441109.792 4375107.823 10 0 60198 19800.00000 0 5633997.280 -23739440.989 7505269.683 10 0 60198 20700.00000 0 5371715.181 -22642504.806 10489951.061 10 0 60198 21600.00000 0 5196836.183 -21174754.812 13271281.168 10 0 60198 22500.00000 0 5158311.961 -19373023.691 15795313.406 10 0 60198 23400.00000 0 5297468.198 -17285118.954 18013067.374 10 0 60198 24300.00000 0 5646057.522 -14967976.366 19881476.201 10 0 60198 25200.00000 0 6224722.854 -12485446.967 21364221.256 10 0 60198 26100.00000 0 7041936.608 -9905808.858 22432438.356 10 0 60198 27000.00000 0 8093461.465 -7299106.175 23065281.943 10 0 60198 27900.00000 0 9362356.825 -4734424.908 23250336.283 10 0 60198 28800.00000 0 10819532.379 -2277217.939 22983865.414 10 0 60198 29700.00000 0 12424827.430 13210.229 22270896.457 10 0 60198 30600.00000 0 14128572.614 2085954.965 21125133.889 10 0 60198 31500.00000 0 15873570.256 3900405.818 19568705.423 10 0 60198 32400.00000 0 17597411.791 5427704.898 17631743.364 10 0 60198 33300.00000 0 19235036.071 6651708.529 15351808.415 10 0 60198 34200.00000 0 20721421.712 7569412.024 12773166.211 10 0 60198 35100.00000 0 21994300.385 8190819.932 9945929.873 10 0 60198 36000.00000 0 22996776.552 8538267.543 6925084.860 10 0 60198 36900.00000 0 23679742.489 8645222.741 3769415.139 10 0 60198 37800.00000 0 24003985.817 8554619.574 540351.999 10 0 60198 38700.00000 0 23941899.514 8316795.025 -2699231.306 10 0 60198 39600.00000 0 23478721.193 7987117.612 -5886254.450 10 0 60198 40500.00000 0 22613248.467 7623409.693 -8958669.178 10 0 60198 41400.00000 0 21357999.657 7283274.225 -11856677.302 10 0 60198 42300.00000 0 19738812.792 7021440.693 -14523902.615 10 0 60198 43200.00000 0 17793899.861 6887243.916 -16908493.048 10 0 60198 44100.00000 0 15572396.382 6922343.450 -18964131.076 10 0 60198 45000.00000 0 13132467.653 7158780.698 -20650932.544 10 0 60198 45900.00000 0 10539051.522 7617456.159 -21936216.716 10 0 60198 46800.00000 0 7861332.467 8307091.069 -22795133.201 10 0 60198 47700.00000 0 5170052.616 9223716.995 -23211134.436 10 0 60198 48600.00000 0 2534771.634 10350714.532 -23176285.601 10 0 60198 49500.00000 0 21189.000 11659399.118 -22691407.010 10 0 60198 50400.00000 0 -2311360.839 13110129.079 -21766047.223 10 0 60198 51300.00000 0 -4412137.640 14653889.258 -20418288.201 10 0 60198 52200.00000 0 -6240857.765 16234283.888 -18674386.903 10 0 60198 53100.00000 0 -7769114.194 17789855.392 -16568260.612 10 0 60198 54000.00000 0 -8981296.991 19256632.318 -14140826.104 10 0 60198 54900.00000 0 -9874977.835 20570800.199 -11439205.355 10 0 60198 55800.00000 0 -10460744.400 21671383.865 -8515812.998 10 0 60198 56700.00000 0 -10761493.289 22502829.427 -5427342.894 10 0 60198 57600.00000 0 -10811212.564 23017378.158 -2233673.076 10 0 60198 58500.00000 0 -10653306.073 23177133.020 1003289.996 10 0 60198 59400.00000 0 -10338530.848 22955731.466 4220805.843 10 0 60198 60300.00000 0 -9922634.828 22339554.234 7356510.221 10 0 60198 61200.00000 0 -9463794.664 21328419.296 10349618.055 10 0 60198 62100.00000 0 -9019961.640 19935731.461 13142096.086 10 0 60198 63000.00000 0 -8646227.456 18188080.631 15679782.918 10 0 60198 63900.00000 0 -8392320.787 16124304.653 17913435.104 10 0 60198 64800.00000 0 -8300340.023 13794054.702 19799679.464 10 0 60198 65700.00000 0 -8402817.808 11255921.810 21301853.578 10 0 60198 66600.00000 0 -8721199.194 8575201.270 22390718.468 10 0 60198 67500.00000 0 -9264798.081 5821386.598 23045029.856 10 0 60198 68400.00000 0 -10030276.807 3065495.930 23251956.898 10 0 60198 69300.00000 0 -11001672.001 377340.854 23007340.023 10 0 60198 70200.00000 0 -12150967.158 -2177149.823 22315782.339 10 0 60198 71100.00000 0 -13439189.491 -4538440.902 21190572.067 10 0 60198 72000.00000 0 -14817986.606 -6655632.263 19653436.512 10 0 60198 72900.00000 0 -16231618.220 -8488337.922 17734131.277 10 0 60198 73800.00000 0 -17619280.355 -10008124.499 15469871.549 10 0 60198 74700.00000 0 -18917664.936 -11199448.991 12904615.557 10 0 60198 75600.00000 0 -20063647.345 -12060056.690 10088213.348 10 0 60198 76500.00000 0 -20996988.415 -12600822.730 7075437.027 10 0 60198 77400.00000 0 -21662936.247 -12845044.296 3924911.321 10 0 60198 78300.00000 0 -22014617.051 -12827213.961 697965.679 10 0 60198 79200.00000 0 -22015112.837 -12591326.853 -2542568.958 10 0 60198 80100.00000 0 -21639136.936 -12188794.369 -5733594.176 10 0 60198 81000.00000 0 -20874235.469 -11676054.102 -8812983.609 10 0 60198 81900.00000 0 -19721463.085 -11111978.669 -11720802.536 10 0 60198 82800.00000 0 -18195503.862 -10555194.594 -14400482.598 10 0 60198 83700.00000 0 -16324231.951 -10061426.109 -16799927.873 10 0 60198 84600.00000 0 -14147730.429 -9680977.295 -18872530.199 10 0 60198 85500.00000 0 -11716809.755 -9456459.761 -20578073.837 10 0 60199 0.00000 0 -9091088.457 -9420862.144 -21883512.022 10 0 60199 900.00000 0 -6336715.167 -9596042.881 -22763601.562 10 0 60199 1800.00000 0 -3523830.799 -9991709.427 -23201382.351 10 0 60199 2700.00000 0 -723871.872 -10604926.273 -23188495.863 10 0 60199 3600.00000 0 1993169.762 -11420171.885 -22725335.681 10 0 60199 4500.00000 0 4561418.927 -12409941.485 -21821028.875 10 0 60199 5400.00000 0 6921610.752 -13535869.810 -20493249.323 10 0 60199 6300.00000 0 9023303.720 -14750326.390 -18767867.146 10 0 60199 7200.00000 0 10826721.756 -15998416.229 -16678441.460 10 0 60199 8100.00000 0 12304150.602 -17220302.000 -14265566.383 10 0 60199 9000.00000 0 13440832.131 -18353750.533 -11576082.896 10 0 60199 9900.00000 0 14235321.208 -19336797.064 -8662171.629 10 0 60199 10800.00000 0 14699291.884 -20110415.808 -5580343.875 10 0 60199 11700.00000 0 14856802.520 -20621085.074 -2390349.976 10 0 60199 12600.00000 0 14743052.000 -20823139.582 845974.024 10 0 60199 13500.00000 0 14402680.087 -20680811.289 4065899.477 10 0 60199 14400.00000 0 13887683.971 -20169872.928 7207015.215 10 0 60199 15300.00000 0 13255039.121 -19278815.135 10208431.409 10 0 60199 16200.00000 0 12564124.627 -18009507.218 13011954.266 10 0 60199 17100.00000 0 11874061.361 -16377313.134 15563209.156 10 0 60199 18000.00000 0 11241074.856 -14410656.803 17812690.775 10 0 60199 18900.00000 0 10715993.669 -12150053.652 19716720.452 10 0 60199 19800.00000 0 10341988.370 -9646647.356 21238292.440 10 0 60199 20700.00000 0 10152646.259 -6960311.253 22347793.099 10 0 60199 21600.00000 0 10170463.027 -4157391.873 23023579.250 10 0 60199 22500.00000 0 10405815.237 -1308186.844 23252404.481 10 0 60199 23400.00000 0 10856457.610 1515739.395 23029684.910 10 0 60199 24300.00000 0 11507567.304 4244291.785 22359598.708 10 0 60199 25200.00000 0 12332334.533 6811520.059 21255016.736 10 0 60199 26100.00000 0 13293076.070 9158122.774 19737264.637 10 0 60199 27000.00000 0 14342826.031 11233676.195 17835719.916 10 0 60199 27900.00000 0 15427338.124 12998495.336 15587250.714 10 0 60199 28800.00000 0 16487415.767 14425049.457 13035506.194 10 0 60199 29700.00000 0 17461472.209 15498872.771 10230071.542 10 0 60199 30600.00000 0 18288212.564 16218932.222 7225503.572 10 0 60199 31500.00000 0 18909323.905 16597437.012 4080265.692 10 0 60199 32400.00000 0 19272058.845 16659098.327 855583.330 10 0 60199 33300.00000 0 19331602.151 16439871.148 -2385757.157 10 0 60199 34200.00000 0 19053118.992 15985232.259 -5580641.556 10 0 60199 35100.00000 0 18413396.892 15348068.472 -8666867.633 10 0 60199 36000.00000 0 17402010.821 14586265.776 -11584366.282 10 0 60199 36900.00000 0 16021961.294 13760102.838 -14276378.998 10 0 60199 37800.00000 0 14289757.937 12929560.477 -16690567.834 10 0 60199 38700.00000 0 12234944.622 12151661.956 -18780035.662 10 0 60199 39600.00000 0 9899086.044 11477957.289 -20504236.670 10 0 60199 40500.00000 0 7334258.291 10952258.109 -21829759.638 10 0 60199 41400.00000 0 4601106.695 10608718.618 -22730969.348 10 0 60199 42300.00000 0 1766552.154 10470343.008 -23190494.513 10 0 60199 43200.00000 0 -1098758.507 10547981.475 -23199553.808 10 0 60199 44100.00000 0 -3923152.374 10839856.092 -22758114.710 10 0 60199 45000.00000 0 -6636668.764 11331635.492 -21874883.099 10 0 60199 45900.00000 0 -9173723.181 11997054.254 -20567124.657 10 0 60199 46800.00000 0 -11475587.469 12799050.187 -18860322.122 10 0 60199 47700.00000 0 -13492584.503 13691371.170 -16787675.465 10 0 60199 48600.00000 0 -15185907.822 14620583.697 -14389454.763 10 0 60199 49500.00000 0 -16528992.158 15528398.653 -11712218.268 10 0 60199 50400.00000 0 -17508379.467 16354216.666 -8807910.600 10 0 60199 51300.00000 0 -18124045.905 17037786.194 -5732858.247 10 0 60199 52200.00000 0 -18389177.658 17521862.906 -2546681.465 10 0 60199 53100.00000 0 -18329406.209 17754758.718 688856.635 10 0 60199 54000.00000 0 -17981536.088 17692673.390 3911041.870 10 0 60199 54900.00000 0 -17391819.310 17301710.702 7057418.850 10 0 60199 55800.00000 0 -16613849.287 16559494.084 10066995.759 10 0 60199 56700.00000 0 -15706163.025 15456313.424 12881421.065 10 0 60199 57600.00000 0 -14729652.449 13995754.265 15446109.673 10 0 60199 58500.00000 0 -13744893.368 12194781.862 17711297.139 10 0 60199 59400.00000 0 -12809504.130 10083275.309 19633001.883 10 0 60199 60300.00000 0 -11975644.617 7703029.643 21173877.216 10 0 60199 61200.00000 0 -11287760.429 5106265.868 22303936.964 10 0 60199 62100.00000 0 -10780666.863 2353709.161 23001140.852 10 0 60199 63000.00000 0 -10478053.260 -487686.539 23251828.330 10 0 60199 63900.00000 0 -10391470.822 -3347274.629 23050992.193 10 0 60199 64800.00000 0 -10519847.029 -6153408.722 22402386.198 10 0 60199 65700.00000 0 -10849547.806 -8836181.616 21318463.856 10 0 60199 66600.00000 0 -11354985.811 -11330097.366 19820148.611 10 0 60199 67500.00000 0 -11999750.197 -13576565.822 17936438.800 10 0 60199 68400.00000 0 -12738211.217 -15526115.998 15703853.922 10 0 60199 69300.00000 0 -13517532.712 -17140235.876 13165731.992 10 0 60199 70200.00000 0 -14280007.948 -18392761.606 10371390.821 10 0 60199 71100.00000 0 -14965620.144 -19270757.749 7375169.078 10 0 60199 72000.00000 0 -15514718.992 -19774851.519 4235365.729 10 0 60199 72900.00000 0 -15870699.117 -19919007.087 1013098.855 10 0 60199 73800.00000 0 -15982565.944 -19729749.848 -2228893.205 10 0 60199 74700.00000 0 -15807279.011 -19244874.061 -5427483.948 10 0 60199 75600.00000 0 -15311772.104 -18511689.450 -8520398.790 10 0 60199 76500.00000 0 -14474563.414 -17584882.058 -11447437.708 10 0 60199 77400.00000 0 -13286886.491 -16524081.138 -14151655.397 10 0 60199 78300.00000 0 -11753293.348 -15391236.198 -16580475.032 10 0 60199 79200.00000 0 -9891703.646 -14247916.196 -18686713.341 10 0 60199 80100.00000 0 -7732897.548 -13152645.718 -20429496.855 10 0 60199 81000.00000 0 -5319473.380 -12158390.983 -21775051.691 10 0 60199 81900.00000 0 -2704313.653 -11310301.595 -22697352.142 10 0 60199 82800.00000 0 51376.369 -10643802.673 -23178616.284 10 0 60199 83700.00000 0 2880375.905 -10183116.788 -23209640.029 10 0 60199 84600.00000 0 5712005.829 -9940276.684 -22789964.207 10 0 60199 85500.00000 0 8474829.891 -9914668.988 -21927872.430 10 0 60200 0.00000 0 11099388.219 -10093126.706 -20640220.778 10 0 60200 900.00000 0 13520851.915 -10450565.524 -18952102.434 10 0 60200 1800.00000 0 15681486.139 -10951135.849 -16896356.014 10 0 60200 2700.00000 0 17532825.366 -11549841.712 -14512924.917 10 0 60200 3600.00000 0 19037468.235 -12194557.770 -11848081.717 10 0 60200 4500.00000 0 20170420.172 -12828359.349 -8953531.803 10 0 60200 5400.00000 0 20919928.990 -13392067.424 -5885413.421 10 0 60200 6300.00000 0 21287780.010 -13826901.511 -2703213.169 10 0 60200 7200.00000 0 21289039.510 -14077128.880 531382.392 10 0 60200 8100.00000 0 20951258.214 -14092598.672 3755677.048 10 0 60200 9000.00000 0 20313168.946 -13831054.218 6907174.487 10 0 60200 9900.00000 0 19422933.486 -13260126.004 9924783.887 10 0 60200 10800.00000 0 18336012.546 -12358921.149 12749998.523 10 0 60200 11700.00000 0 17112748.208 -11119141.863 15328024.944 10 0 60200 12600.00000 0 15815760.127 -9545685.005 17608841.179 10 0 60200 13500.00000 0 14507264.458 -7656696.345 19548163.879 10 0 60200 14400.00000 0 13246427.471 -5483075.628 21108306.101 10 0 60200 15300.00000 0 12086864.520 -3067451.396 22258909.404 10 0 60200 16200.00000 0 11074388.838 -462666.385 22977536.310 10 0 60200 17100.00000 0 10245104.291 2270165.368 23250111.675 10 0 60200 18000.00000 0 9623922.062 5063950.727 23071204.199 10 0 60200 18900.00000 0 9223563.575 7848165.391 22444142.164 10 0 60200 19800.00000 0 9044091.904 10551553.061 21380960.410 10 0 60200 20700.00000 0 9072991.870 13104864.686 19902178.646 10 0 60200 21600.00000 0 9285796.088 15443524.518 18036414.307 10 0 60200 22500.00000 0 9647231.232 17510112.277 15819836.349 10 0 60200 23400.00000 0 10112836.751 19256557.850 13295469.584 10 0 60200 24300.00000 0 10630988.001 20645956.610 10512362.267 10 0 60200 25200.00000 0 11145238.297 21653928.991 7524632.612 10 0 60200 26100.00000 0 11596880.464 22269466.949 4390412.740 10 0 60200 27000.00000 0 11927618.638 22495231.553 1170710.921 10 0 60200 27900.00000 0 12082236.116 22347289.206 -2071785.012 10 0 60200 28800.00000 0 12011144.835 21854298.016 -5273938.692 10 0 60200 29700.00000 0 11672707.053 21056179.283 -8373405.500 10 0 60200 30600.00000 0 11035229.447 20002331.199 -11309856.639 10 0 60200 31500.00000 0 10078543.951 18749461.339 -14026161.936 10 0 60200 32400.00000 0 8795107.413 17359130.689 -16469507.388 10 0 60200 33300.00000 0 7190572.819 15895113.999 -18592425.081 10 0 60200 34200.00000 0 5283807.451 14420688.686 -20353715.190 10 0 60200 35100.00000 0 3106356.871 12995967.085 -21719242.310 10 0 60200 36000.00000 0 701376.981 11675384.396 -22662591.237 10 0 60200 36900.00000 0 -1877921.208 10505447.645 -23165570.231 10 0 60200 37800.00000 0 -4570249.309 9522839.374 -23218553.065 10 0 60200 38700.00000 0 -7308559.562 8752954.465 -22820654.280 10 0 60200 39600.00000 0 -10022606.939 8208930.046 -21979735.249 10 0 60200 40500.00000 0 -12641649.403 7891207.540 -20712241.826 10 0 60200 41400.00000 0 -15097174.850 7787643.639 -19042877.340 10 0 60200 42300.00000 0 -17325542.346 7874164.051 -17004117.685 10 0 60200 43200.00000 0 -19270428.987 8115931.301 -14635578.057 10 0 60200 44100.00000 0 -20884981.845 8468976.542 -11983243.539 10 0 60200 45000.00000 0 -22133586.551 8882226.047 -9098578.245 10 0 60200 45900.00000 0 -22993180.156 9299836.689 -6037529.989 10 0 60200 46800.00000 0 -23454054.603 9663741.888 -2859449.403 10 0 60200 47700.00000 0 -23520118.220 9916300.705 374055.877 10 0 60200 48600.00000 0 -23208605.240 10002938.494 3600310.074 10 0 60200 49500.00000 0 -22549246.049 9874667.792 6756778.484 10 0 60200 50400.00000 0 -21582933.384 9490383.120 9782273.856 10 0 60200 51300.00000 0 -20359940.645 8818832.795 12618136.913 10 0 60200 52200.00000 0 -18937766.962 7840184.231 15209368.468 10 0 60200 53100.00000 0 -17378699.130 6547116.163 17505691.575 10 0 60200 54000.00000 0 -15747192.150 4945390.755 19462523.532 10 0 60200 54900.00000 0 -14107177.586 3053880.169 21041839.347 10 0 60200 55800.00000 0 -12519411.909 904044.769 22212910.238 10 0 60200 56700.00000 0 -11038975.235 -1461117.205 22952903.109 10 0 60200 57600.00000 0 -9713024.659 -3988606.731 23247329.429 10 0 60200 58500.00000 0 -8578895.876 -6617385.837 23090334.614 10 0 60200 59400.00000 0 -7662632.366 -9280684.424 22484821.861 10 0 60200 60300.00000 0 -6978003.762 -11908557.768 21442407.305 10 0 60200 61200.00000 0 -6526054.736 -14430589.531 19983206.444 10 0 60200 62100.00000 0 -6295203.627 -16778628.676 18135454.902 10 0 60200 63000.00000 0 -6261887.005 -18889446.719 15934969.755 10 0 60200 63900.00000 0 -6391723.312 -20707204.462 13424460.883 10 0 60200 64800.00000 0 -6641146.684 -22185624.897 10652704.886 10 0 60200 65700.00000 0 -6959441.824 -23289780.834 7673597.131 10 0 60200 66600.00000 0 -7291093.523 -23997421.709 4545100.242 10 0 60200 67500.00000 0 -7578350.593 -24299783.329 1328109.845 10 0 60200 68400.00000 0 -7763894.552 -24201846.205 -1914739.711 10 0 60200 69300.00000 0 -7793498.640 -23722031.505 -5120305.289 10 0 60200 70200.00000 0 -7618562.970 -22891347.823 -8226175.399 10 0 60200 71100.00000 0 -7198416.894 -21752025.347 -11171895.668 10 0 60200 72000.00000 0 -6502289.671 -20355696.002 -13900154.235 10 0 60200 72900.00000 0 -5510864.829 -18761197.384 -16357902.995 10 0 60200 73800.00000 0 -4217351.580 -17032094.146 -18497392.273 10 0 60200 74700.00000 0 -2628027.382 -15234022.182 -20277098.464 10 0 60200 75600.00000 0 -762228.340 -13431968.018 -21662526.825 10 0 60200 76500.00000 0 1348212.466 -11687597.972 -22626874.351 10 0 60200 77400.00000 0 3660055.323 -10056749.041 -23151540.661 10 0 60200 78300.00000 0 6120227.454 -8587186.023 -23226478.020 10 0 60200 79200.00000 0 8667814.315 -7316717.715 -22850374.781 10 0 60200 80100.00000 0 11236385.858 -6271749.614 -22030669.685 10 0 60200 81000.00000 0 13756561.361 -5466331.970 -20783397.646 10 0 60200 81900.00000 0 16158706.702 -4901741.209 -19132870.624 10 0 60200 82800.00000 0 18375652.614 -4566610.454 -17111200.190 10 0 60200 83700.00000 0 20345321.737 -4437602.008 -14757671.221 10 0 60200 84600.00000 0 22013156.109 -4480592.120 -12117978.766 10 0 60200 85500.00000 0 23334245.002 -4652317.145 -9243342.729 10 0 60201 0.00000 0 24275065.340 -4902411.023 -6189517.483 10 0 60201 900.00000 0 24814763.398 -5175747.903 -3015713.575 10 0 60201 1800.00000 0 24945924.115 -5414990.580 216543.743 10 0 60201 2700.00000 0 24674798.050 -5563237.695 3444602.864 10 0 60201 3600.00000 0 24020975.573 -5566657.644 6605894.313 10 0 60201 4500.00000 0 23016523.008 -5376998.238 9639137.782 10 0 60201 5400.00000 0 21704616.775 -4953866.113 12485524.435 10 0 60201 6300.00000 0 20137732.661 -4266679.512 15089851.924 10 0 60201 7200.00000 0 18375465.781 -3296211.706 17401590.425 10 0 60201 8100.00000 0 16482071.868 -2035659.191 19375859.519 10 0 60201 9000.00000 0 14523832.173 -491188.600 20974297.338 10 0 60201 9900.00000 0 12566351.437 1318062.161 22165805.503 10 0 60201 10800.00000 0 10671901.152 3360530.424 22927155.635 10 0 60201 11700.00000 0 8896918.383 5593302.122 23243445.759 10 0 60201 12600.00000 0 7289764.089 7963669.261 23108397.574 10 0 60201 13500.00000 0 5888834.163 10411108.605 22524488.383 10 0 60201 14400.00000 0 4721101.853 12869600.956 21502914.452 10 0 60201 15300.00000 0 3801152.477 15270195.898 20063385.576 10 0 60201 16200.00000 0 3130750.874 17543716.219 18233753.775 10 0 60201 17100.00000 0 2698959.815 19623489.883 16049482.194 10 0 60201 18000.00000 0 2482804.496 21447995.636 13552963.507 10 0 60201 18900.00000 0 2448455.110 22963311.438 10792700.217 10 0 60201 19800.00000 0 2552877.424 24125262.608 7822362.243 10 0 60201 20700.00000 0 2745881.179 24901178.883 4699740.018 10 0 60201 21600.00000 0 2972478.915 25271185.778 1485613.758 10 0 60201 22500.00000 0 3175454.274 25228975.299 -1757438.435 10 0 60201 23400.00000 0 3298029.651 24782023.113 -4966269.353 10 0 60201 24300.00000 0 3286518.623 23951242.940 -8078403.194 10 0 60201 25200.00000 0 3092849.203 22770092.998 -11033262.367 10 0 60201 26100.00000 0 2676849.535 21283172.740 -13773355.425 10 0 60201 27000.00000 0 2008197.933 19544369.877 -16245402.007 10 0 60201 27900.00000 0 1067953.768 17614636.613 -18401372.245 10 0 60201 28800.00000 0 -150396.278 15559489.593 -20199420.101 10 0 60201 29700.00000 0 -1640421.195 13446339.311 -21604692.616 10 0 60201 30600.00000 0 -3382779.974 11341761.430 -22589999.913 10 0 60201 31500.00000 0 -5345805.986 9308824.399 -23136333.692 10 0 60201 32400.00000 0 -7486617.029 7404584.699 -23233225.203 10 0 60201 33300.00000 0 -9752704.743 5677853.538 -22878936.818 10 0 60201 34200.00000 0 -12083937.177 4167326.945 -22080484.522 10 0 60201 35100.00000 0 -14414891.281 2900155.694 -20853491.779 10 0 60201 36000.00000 0 -16677418.584 1891012.865 -19221878.264 10 0 60201 36900.00000 0 -18803337.726 1141696.066 -17217389.923 10 0 60201 37800.00000 0 -20727142.420 641278.975 -14878979.652 10 0 60201 38700.00000 0 -22388612.798 366804.102 -12252050.523 10 0 60201 39600.00000 0 -23735222.086 284486.165 -9387576.074 10 0 60201 40500.00000 0 -24724239.014 351374.361 -6341114.355 10 0 60201 41400.00000 0 -25324438.929 517402.688 -3171734.511 10 0 60201 42300.00000 0 -25517352.802 727741.449 59123.632 10 0 60201 43200.00000 0 -25298002.341 925350.493 3288835.229 10 0 60201 44100.00000 0 -24675090.882 1053626.392 6454798.667 10 0 60201 45000.00000 0 -23670642.063 1059031.831 9495643.257 10 0 60201 45900.00000 0 -22319101.434 893596.208 12352413.301 10 0 60201 46800.00000 0 -20665938.475 517181.878 14969705.913 10 0 60201 47700.00000 0 -18765806.925 -100579.835 17296740.920 10 0 60201 48600.00000 0 -16680339.803 -978764.923 19288342.493 10 0 60201 49500.00000 0 -14475670.488 -2124110.307 20905813.932 10 0 60201 50400.00000 0 -12219782.485 -3530489.971 22117688.957 10 0 60201 51300.00000 0 -9979797.637 -5178937.154 22900345.219 10 0 60201 52200.00000 0 -7819315.001 -7038213.556 23238468.210 10 0 60201 53100.00000 0 -5795910.601 -9065903.710 23125356.404 10 0 60201 54000.00000 0 -3958901.684 -11209990.867 22563061.320 10 0 60201 54900.00000 0 -2347468.260 -13410850.532 21562359.087 10 0 60201 55800.00000 0 -989210.065 -15603580.106 20142553.163 10 0 60201 56700.00000 0 100800.913 -17720568.703 18331110.980 10 0 60201 57600.00000 0 920432.753 -19694200.666 16163140.419 10 0 60201 58500.00000 0 1480353.532 -21459580.111 13680715.285 10 0 60201 59400.00000 0 1803344.875 -22957162.354 10932061.996 10 0 60201 60300.00000 0 1923098.300 -24135181.437 7970622.766 10 0 60201 61200.00000 0 1882545.616 -24951771.028 4854013.346 10 0 60201 62100.00000 0 1731794.671 -25376688.633 1642895.877 10 0 60201 63000.00000 0 1525758.819 -25392569.609 -1600210.581 10 0 60201 63900.00000 0 1321581.800 -24995657.381 -4812157.627 10 0 60201 64800.00000 0 1175968.609 -24195978.584 -7930408.078 10 0 60201 65700.00000 0 1142537.053 -23016955.570 -10894264.072 10 0 60201 66600.00000 0 1269303.731 -21494472.816 -13646057.498 10 0 60201 67500.00000 0 1596412.287 -19675437.060 -16132278.569 10 0 60201 68400.00000 0 2154201.183 -17615892.437 -18304619.902 10 0 60201 69300.00000 0 2961693.496 -15378770.670 -20120915.435 10 0 60201 70200.00000 0 4025573.005 -13031371.416 -21545956.083 10 0 60201 71100.00000 0 5339690.015 -10642678.864 -22552166.777 10 0 60201 72000.00000 0 6885117.784 -8280627.030 -23120132.528 10 0 60201 72900.00000 0 8630757.189 -6009427.757 -23238964.330 10 0 60201 73800.00000 0 10534464.272 -3887072.216 -22906498.880 10 0 60201 74700.00000 0 12544653.497 -1963108.964 -22129329.270 10 0 60201 75600.00000 0 14602309.853 -276789.656 -20922666.966 10 0 60201 76500.00000 0 16643326.055 1144342.146 -19310038.409 10 0 60201 77400.00000 0 18601067.691 2285362.172 -17322822.580 10 0 60201 78300.00000 0 20409059.802 3144340.700 -14999638.649 10 0 60201 79200.00000 0 22003683.416 3732168.141 -12385595.560 10 0 60201 80100.00000 0 23326770.112 4071840.076 -9531417.911 10 0 60201 81000.00000 0 24327986.825 4197233.227 -6492464.769 10 0 60201 81900.00000 0 24966911.923 4151425.021 -3327660.074 10 0 60201 82800.00000 0 25214716.185 3984628.294 -98355.025 10 0 60201 83700.00000 0 25055378.688 3751828.644 3132855.836 10 0 60201 84600.00000 0 24486386.916 3510224.339 6303342.271 10 0 60201 85500.00000 0 23518891.682 3316576.843 9351646.559 99